Hourly Weather Pabna

Today, 11 August, Tuesday

Time Temperature Precipitation Wind Pressure Humidity
00:00 +30°C° 0 mm 1 mps 748 mmHg 89%
01:00 +30°C° 0 mm 1 mps 748 mmHg 90%
02:00 +30°C° 0 mm 1 mps 748 mmHg 90%
03:00 +29°C° 0 mm 2 mps 747 mmHg 91%
04:00 +29°C° 0 mm 2 mps 747 mmHg 92%
05:00 +29°C° 0 mm 2 mps 748 mmHg 93%
06:00 +29°C° 0 mm 2 mps 748 mmHg 95%
07:00 +30°C° 0 mm 2 mps 748 mmHg 88%
08:00 +32°C° 0 mm 2 mps 748 mmHg 81%
09:00 +34°C° 0 mm 3 mps 748 mmHg 75%
10:00 +35°C° 0.5 mm 3 mps 748 mmHg 72%
11:00 +35°C° 0.5 mm 3 mps 748 mmHg 69%
12:00 +36°C° 0 mm 3 mps 748 mmHg 64%
13:00 +36°C° 0.3 mm 3 mps 747 mmHg 64%
14:00 +37°C° 0.3 mm 3 mps 746 mmHg 63%
15:00 +37°C° 0.3 mm 3 mps 746 mmHg 63%
16:00 +36°C° 0.8 mm 3 mps 746 mmHg 68%
17:00 +35°C° 0.8 mm 3 mps 746 mmHg 73%
18:00 +34°C° 0 mm 3 mps 746 mmHg 77%
19:00 +33°C° 0.1 mm 3 mps 747 mmHg 79%
20:00 +33°C° 0.1 mm 3 mps 747 mmHg 82%
21:00 +31°C° 0.1 mm 3 mps 748 mmHg 85%
22:00 +31°C° 0.1 mm 3 mps 748 mmHg 86%
23:00 +30°C° 0.1 mm 4 mps 748 mmHg 87%

Tomorrow, 12 August, Wednesday

Time Temperature Precipitation Wind Pressure Humidity
00:00 +30°C° 0.1 mm 4 mps 748 mmHg 88%
01:00 +30°C° 0 mm 4 mps 748 mmHg 89%
02:00 +29°C° 0 mm 4 mps 748 mmHg 90%
03:00 +29°C° 0 mm 3 mps 747 mmHg 91%
04:00 +29°C° 0 mm 3 mps 747 mmHg 92%
05:00 +29°C° 0 mm 3 mps 748 mmHg 92%
06:00 +29°C° 0 mm 3 mps 748 mmHg 93%
07:00 +30°C° 0.1 mm 3 mps 748 mmHg 86%
08:00 +33°C° 0.1 mm 4 mps 748 mmHg 79%
09:00 +35°C° 0.1 mm 4 mps 749 mmHg 72%
10:00 +35°C° 0.3 mm 4 mps 749 mmHg 69%
11:00 +36°C° 0.3 mm 4 mps 748 mmHg 65%
12:00 +37°C° 0.3 mm 5 mps 748 mmHg 62%
13:00 +37°C° 0.8 mm 5 mps 748 mmHg 62%
14:00 +37°C° 0.8 mm 5 mps 747 mmHg 63%
15:00 +37°C° 0.8 mm 5 mps 746 mmHg 63%
16:00 +36°C° 0.9 mm 5 mps 746 mmHg 67%
17:00 +35°C° 0.9 mm 4 mps 746 mmHg 71%
18:00 +35°C° 0.9 mm 4 mps 746 mmHg 74%
19:00 +34°C° 0.4 mm 4 mps 747 mmHg 77%
20:00 +33°C° 0.4 mm 5 mps 748 mmHg 81%
21:00 +32°C° 0.4 mm 5 mps 748 mmHg 84%
22:00 +30°C° 0 mm 5 mps 749 mmHg 86%
23:00 +30°C° 0 mm 4 mps 749 mmHg 87%

Day after tomorrow, 13 August, Thursday

Time Temperature Precipitation Wind Pressure Humidity
00:00 +30°C° 0 mm 4 mps 749 mmHg 88%
01:00 +29°C° 0 mm 4 mps 748 mmHg 89%
02:00 +29°C° 0 mm 4 mps 748 mmHg 90%
03:00 +29°C° 0 mm 4 mps 747 mmHg 91%
04:00 +29°C° 0 mm 4 mps 747 mmHg 91%
05:00 +29°C° 0 mm 4 mps 747 mmHg 92%
06:00 +29°C° 0 mm 4 mps 747 mmHg 92%
07:00 +30°C° 0.1 mm 4 mps 748 mmHg 86%
08:00 +32°C° 0.1 mm 5 mps 748 mmHg 81%
09:00 +34°C° 0.1 mm 5 mps 749 mmHg 75%
10:00 +35°C° 0.4 mm 5 mps 748 mmHg 72%
11:00 +35°C° 0.4 mm 5 mps 748 mmHg 68%
12:00 +36°C° 0.4 mm 5 mps 748 mmHg 64%
13:00 +36°C° 0.7 mm 5 mps 747 mmHg 64%
14:00 +36°C° 0.7 mm 5 mps 746 mmHg 65%
15:00 +37°C° 0.7 mm 5 mps 745 mmHg 65%
16:00 +36°C° 1.2 mm 4 mps 745 mmHg 69%
17:00 +35°C° 1.2 mm 4 mps 745 mmHg 73%
18:00 +34°C° 1.2 mm 3 mps 744 mmHg 77%
19:00 +33°C° 1.1 mm 4 mps 745 mmHg 80%
20:00 +33°C° 1.1 mm 4 mps 746 mmHg 82%
21:00 +32°C° 1.1 mm 4 mps 747 mmHg 85%
22:00 +30°C° 0.1 mm 4 mps 747 mmHg 86%
23:00 +30°C° 0.1 mm 4 mps 747 mmHg 87%

14 August, Friday

Time Temperature Precipitation Wind Pressure Humidity
00:00 +30°C° 0.1 mm 4 mps 747 mmHg 89%
01:00 +29°C° 0.2 mm 4 mps 747 mmHg 89%
02:00 +29°C° 0.2 mm 4 mps 746 mmHg 90%
03:00 +29°C° 0.2 mm 3 mps 746 mmHg 91%
04:00 +29°C° 0 mm 3 mps 746 mmHg 91%
05:00 +29°C° 0 mm 3 mps 746 mmHg 90%
06:00 +29°C° 0 mm 3 mps 747 mmHg 90%
07:00 +30°C° 0.1 mm 3 mps 747 mmHg 86%
08:00 +32°C° 0.1 mm 4 mps 747 mmHg 83%
09:00 +33°C° 0.1 mm 5 mps 747 mmHg 80%
10:00 +34°C° 0.1 mm 5 mps 747 mmHg 74%
11:00 +35°C° 0.1 mm 4 mps 746 mmHg 69%
12:00 +36°C° 0.1 mm 4 mps 746 mmHg 64%
13:00 +36°C° 0.8 mm 4 mps 745 mmHg 64%
14:00 +36°C° 0.8 mm 4 mps 744 mmHg 65%
15:00 +36°C° 0.8 mm 4 mps 744 mmHg 65%
16:00 +35°C° 2.3 mm 4 mps 744 mmHg 70%
17:00 +34°C° 2.3 mm 4 mps 743 mmHg 74%
18:00 +33°C° 2.3 mm 4 mps 743 mmHg 79%
19:00 +33°C° 0.8 mm 4 mps 744 mmHg 81%
20:00 +32°C° 0.8 mm 4 mps 745 mmHg 84%
21:00 +32°C° 0.8 mm 4 mps 746 mmHg 86%
22:00 +30°C° 0.4 mm 4 mps 746 mmHg 87%
23:00 +30°C° 0.4 mm 4 mps 746 mmHg 89%

15 August, Saturday

Time Temperature Precipitation Wind Pressure Humidity
00:00 +30°C° 0.4 mm 4 mps 746 mmHg 90%
01:00 +29°C° 0 mm 4 mps 745 mmHg 91%
02:00 +29°C° 0 mm 3 mps 745 mmHg 91%
03:00 +29°C° 0 mm 3 mps 744 mmHg 92%
04:00 +29°C° 0 mm 3 mps 745 mmHg 92%
05:00 +29°C° 0 mm 3 mps 745 mmHg 92%
06:00 +29°C° 0 mm 3 mps 745 mmHg 92%
07:00 +30°C° 0 mm 4 mps 745 mmHg 87%
08:00 +32°C° 0 mm 4 mps 745 mmHg 83%
09:00 +33°C° 0 mm 5 mps 746 mmHg 78%
10:00 +34°C° 0.6 mm 5 mps 745 mmHg 74%
11:00 +35°C° 0.6 mm 5 mps 745 mmHg 71%
12:00 +36°C° 0.6 mm 5 mps 745 mmHg 67%
13:00 +36°C° 1.9 mm 5 mps 744 mmHg 67%
14:00 +36°C° 1.9 mm 5 mps 744 mmHg 67%
15:00 +36°C° 1.9 mm 5 mps 743 mmHg 68%
16:00 +35°C° 0.8 mm 4 mps 743 mmHg 70%
17:00 +35°C° 0.8 mm 4 mps 743 mmHg 73%
18:00 +34°C° 0.8 mm 4 mps 743 mmHg 75%
19:00 +34°C° 0.1 mm 4 mps 743 mmHg 77%
20:00 +33°C° 0.1 mm 4 mps 744 mmHg 79%
21:00 +32°C° 0.1 mm 5 mps 745 mmHg 81%
22:00 +32°C° 0 mm 5 mps 745 mmHg 83%
23:00 +30°C° 0 mm 5 mps 745 mmHg 85%

16 August, Sunday

Time Temperature Precipitation Wind Pressure Humidity
00:00 +30°C° 0 mm 5 mps 745 mmHg 87%
01:00 +30°C° 0 mm 4 mps 745 mmHg 88%
02:00 +29°C° 0 mm 4 mps 745 mmHg 89%
03:00 +29°C° 0 mm 4 mps 745 mmHg 90%
04:00 +29°C° 0.1 mm 4 mps 745 mmHg 90%
05:00 +29°C° 0.1 mm 4 mps 745 mmHg 90%
06:00 +29°C° 0.1 mm 4 mps 746 mmHg 89%
07:00 +30°C° 0.7 mm 5 mps 746 mmHg 86%
08:00 +32°C° 0.7 mm 6 mps 746 mmHg 82%
09:00 +33°C° 0.7 mm 7 mps 747 mmHg 79%
10:00 +33°C° 1 mm 7 mps 746 mmHg 76%
11:00 +34°C° 1 mm 7 mps 746 mmHg 74%
12:00 +35°C° 1 mm 7 mps 745 mmHg 72%
13:00 +35°C° 1.9 mm 7 mps 745 mmHg 72%
14:00 +35°C° 1.9 mm 7 mps 744 mmHg 72%
15:00 +35°C° 1.9 mm 7 mps 743 mmHg 73%
16:00 +34°C° 1.4 mm 6 mps 743 mmHg 75%
17:00 +33°C° 1.4 mm 6 mps 743 mmHg 78%
18:00 +33°C° 1.4 mm 5 mps 744 mmHg 81%
19:00 +32°C° 0.2 mm 5 mps 744 mmHg 83%
20:00 +32°C° 0.2 mm 5 mps 745 mmHg 85%
21:00 +30°C° 0.2 mm 4 mps 746 mmHg 88%
22:00 +30°C° 0 mm 4 mps 746 mmHg 89%
23:00 +29°C° 0 mm 4 mps 747 mmHg 89%
Show more